Volver al catálogo

STARLINK-11210

ActivoComunicacionesVLEO
NORAD 60116·PAYLOAD·🇺🇸 United States

Lanzado Jun 24, 2024 desde Vandenberg Space Force Base

Loading…

Próximos Pases (próximas 24 horas)

TLE

ActualizadoSource: CelesTrak SupGP

Época: Sep 15, 2026, 03:31 UTC

1 60116C 24118D   26258.14701389 -.00031095  00000+0 -25618-3 0  2588
2 60116  53.1574   7.4562 0000974 103.7793  45.6270 15.69721710    19

Sigue STARLINK-11210 en tiempo real con AllMySat

Download on the App Store